User: anonymous   Login
Location: Unspecified
(27.5937°N, 0.0000°E)
Time: 13:49:09
(UTC+00:00)
Language:

deb HAPS - Orbit

View from above orbital plane
View from above orbital plane
View from above satellite
View from above satellite

Ground track
Ground track

The orbit is defined by the following mean orbital elements,

1 24151U          26087.98292940 +.00000000 +00000-0 +17979-3 0 00008
2 24151  82.0145 267.0792 0148818 299.5590  59.0846 14.63443994    06
Epoch (UTC): 28 March 2026 23:35:25
Eccentricity: 0.0148818
inclination: 82.0145°
perigee height: 577 km
apogee height: 787 km
right ascension of ascending node: 267.0792°
argument of perigee: 299.5590°
revolutions per day: 14.63443994
mean anomaly at epoch: 59.0846°

The dashed part of the orbit path shows where the satellite is in the earth's shadow,  

DLR